This is the latest recevied weather packets stored in our database for station/object IW3HBX-3. If no packets are shown the sender has not sent any weather packets the latest 1 day(s).
| Time | Temp. | Humidity | Pressure | Rain* | Wind** | Luminosity | Snow |
|---|---|---|---|---|---|---|---|
| 1788563650 | 24.44° C | 83% | 1017.3 hPa | 0 mm | - | 0 W/m² | - |
| 1788563350 | 23.89° C | 85% | 1017.3 hPa | 0 mm | - | 0 W/m² | - |
| 1788563050 | 23.89° C | 85% | 1017.2 hPa | 0 mm | - | 0 W/m² | - |
| 1788562750 | 23.89° C | 85% | 1017.3 hPa | 0 mm | - | 0 W/m² | - |
| 1788562450 | 23.89° C | 85% | 1017.3 hPa | 0 mm | - | 0 W/m² | - |
| 1788562192 | 23.33° C | 86% | 1017.3 hPa | 0 mm | - | 0 W/m² | - |
| 1788562149 | 23.33° C | 86% | 1017.3 hPa | 0 mm | - | 0 W/m² | - |
| 1788561849 | 23.33° C | 86% | 1017.5 hPa | 0 mm | - | 0 W/m² | - |
| 1788561549 | 23.33° C | 86% | 1017.4 hPa | 0 mm | - | 0 W/m² | - |
| 1788561249 | 23.89° C | 85% | 1017.4 hPa | 0 mm | - | 0 W/m² | - |
| 1788560949 | 23.89° C | 83% | 1017.4 hPa | 0 mm | - | 0 W/m² | - |
| 1788560649 | 23.89° C | 85% | 1017.4 hPa | 0 mm | - | 0 W/m² | - |
| 1788560389 | 23.89° C | 85% | 1017.5 hPa | 0 mm | - | 0 W/m² | - |
| 1788560349 | 23.89° C | 85% | 1017.5 hPa | 0 mm | - | 0 W/m² | - |
| 1788560049 | 23.89° C | 83% | 1017.4 hPa | 0 mm | - | 0 W/m² | - |
| 1788559749 | 23.89° C | 83% | 1017.5 hPa | 0 mm | - | 0 W/m² | - |
| 1788559449 | 23.89° C | 83% | 1017.4 hPa | 0 mm | - | 0 W/m² | - |
| 1788559148 | 23.89° C | 82% | 1017.6 hPa | 0 mm | - | 0 W/m² | - |
| 1788558848 | 23.89° C | 82% | 1017.6 hPa | 0 mm | - | 0 W/m² | - |
| 1788558548 | 23.89° C | 83% | 1017.6 hPa | 0 mm | - | 0 W/m² | - |
| 1788558248 | 24.44° C | 82% | 1017.6 hPa | 0 mm | - | 0 W/m² | - |
| 1788557948 | 24.44° C | 82% | 1017.7 hPa | 0 mm | - | 0 W/m² | - |
| 1788557648 | 24.44° C | 81% | 1017.7 hPa | 0 mm | - | 0 W/m² | - |
| 1788557348 | 24.44° C | 80% | 1017.7 hPa | 0 mm | - | 0 W/m² | - |
| 1788557048 | 25° C | 80% | 1017.7 hPa | 0 mm | - | 0 W/m² | - |
* Rain latest hour (hover to see other rain measurements)
** Current wind speed in m/s (hover to see current wind gust speed)